Location: Anuling
(14.1239°N, 120.8922°E)
Time: 05:06:01
(UTC+00:00)

ARIANE 5 DEB (SYLDA) - Pass Details

Date: 14 January 2026
Orbit: 450 x 17853 km, 5.9° (Epoch: 10 February)

Event Time Altitude Azimuth Distance (km) Brightness Sun altitude
Rises 11:27:48 0° 251° (WSW) 2,727 7.3 -24.0°
Reaches altitude 10° 11:30:24 10° 231° (SW) 1,579 5.6 -24.6°
Enters shadow 11:32:22 20° 188° (S) 1,111 4.1 -25.0°
